Simultaneous Nadir Overpasses (SNOs) Predictions

Prediction of SNOs between GOES-15 and METOP-C Satellite Orbit:

Table of predicted SNOs for the next 14.0 days since TLE Epoch: 8/5/2023
Index Date Time (GOES-15) GOES-15 Lat,Lon METOP-C Lat,Lon Distance(km) Time Diff (sec)
1 08/05/2023 11:09:10 0.01, 155.85 -0.06, 155.47 42.50 80
2 08/06/2023 23:28:09 -0.05, 154.28 0.70, 150.82 394.35 80
3 08/07/2023 23:04:52 -0.00, 153.32 -0.58, 155.77 280.61 80
4 08/09/2023 11:26:38 0.04, 151.90 -0.11, 151.10 90.94 80
5 08/10/2023 23:45:36 -0.08, 150.34 0.80, 146.46 442.45 80
6 08/11/2023 23:22:20 -0.03, 149.37 -0.48, 151.41 232.67 80
7 08/13/2023 11:44:05 0.07, 147.96 -0.19, 146.74 138.33 80
8 08/15/2023 00:03:03 -0.11, 146.39 0.87, 142.10 489.24 80
9 08/15/2023 23:39:47 -0.07, 145.41 -0.42, 147.05 186.48 80
10 08/17/2023 12:01:32 0.11, 143.98 -0.25, 142.38 183.35 80
11 08/18/2023 11:38:15 0.07, 143.01 1.04, 147.33 492.70 80
